Location: 22
(39.7117°N, 89.5929°W)
Time: 12:25:20
(UTC-06:00)

Transit 2A Rocket - All Passes

Search period start: 07 February 2023 00:00
Search period end: 17 February 2023 00:00
Orbit: 585 x 915 km, 66.7° (Epoch: 07 February)

Date Brightness Start Highest point End Pass type
(mag) Time Alt. Az. Time Alt. Az. Time Alt. Az.
07 Feb - 05:15:53 10° NNE 05:17:23 11° NE 05:18:53 10° NE visible
07 Feb - 06:55:37 10° NNW 07:01:28 48° NE 07:07:19 10° SE daylight
07 Feb - 08:38:41 10° NW 08:43:50 29° WSW 08:48:56 10° SSW daylight
07 Feb - 21:29:31 10° S 21:33:55 35° ESE 21:38:45 10° NE night (unlit)
07 Feb - 23:12:03 10° WSW 23:16:30 31° NW 23:21:21 10° NNE night (unlit)
08 Feb - 06:12:50 10° N 06:18:09 31° NE 06:23:29 10° ESE visible
08 Feb - 07:55:08 10° NW 08:00:59 49° WSW 08:06:46 10° S daylight
08 Feb - 20:47:44 10° SSE 20:51:11 19° ESE 20:54:52 10° ENE night (unlit)
08 Feb - 22:28:22 10° SW 22:33:12 51° NW 22:38:34 10° NNE night (unlit)
09 Feb - 00:16:38 10° NW 00:17:15 10° NNW 00:17:52 10° NNW night (unlit)
09 Feb - 05:30:16 10° N 05:34:42 21° NE 05:39:09 10° E visible
09 Feb - 07:11:53 10° NNW 07:18:00 81° WSW 07:24:04 10° SSE daylight
09 Feb - 08:57:39 10° W 08:59:40 12° W 09:01:41 10° WSW daylight
09 Feb - 21:45:09 10° SSW 21:50:04 89° WNW 21:55:33 10° NNE night (unlit)
09 Feb - 23:30:28 10° WNW 23:33:34 16° NW 23:36:49 10° N night (unlit)
10 Feb - 04:48:05 10° N 04:51:06 14° NE 04:54:07 10° ENE visible
10 Feb - 06:28:50 10° NNW 06:34:54 63° ENE 06:40:54 10° SE visible
10 Feb - 08:12:33 10° WNW 08:17:00 21° WSW 08:21:24 10° SSW daylight
10 Feb - 21:02:22 10° S 21:07:05 51° ESE 21:12:19 10° NE night (unlit)
10 Feb - 22:45:54 10° W 22:50:01 24° NW 22:54:28 10° N night (unlit)
11 Feb - 05:45:58 10° NNW 05:51:39 40° NE 05:57:19 10° ESE visible
11 Feb - 07:28:43 10° NW 07:34:12 36° WSW 07:39:38 10° S daylight
11 Feb - 20:20:08 10° SSE 20:24:16 28° ESE 20:28:46 10° NE night (unlit)
11 Feb - 22:01:56 10° WSW 22:06:37 38° NW 22:11:46 10° NNE night (unlit)
12 Feb - 05:03:15 10° N 05:08:16 26° NE 05:13:17 10° ESE visible
12 Feb - 06:45:17 10° NW 06:51:17 61° WSW 06:57:13 10° SSE daylight
12 Feb - 19:38:47 10° SE 19:41:35 15° ESE 19:44:31 10° ENE night (unlit)
12 Feb - 21:18:26 10° SW 21:23:23 65° WNW 21:28:52 10° NNE night (unlit)
12 Feb - 23:05:01 10° WNW 23:07:12 12° NW 23:09:28 10° NNW night (unlit)
13 Feb - 04:20:48 10° N 04:24:45 18° NE 04:28:42 10° E visible
13 Feb - 06:02:07 10° NNW 06:08:16 83° ENE 06:14:19 10° SSE visible
13 Feb - 07:46:46 10° WNW 07:50:06 15° WSW 07:53:24 10° SW daylight
13 Feb - 20:35:23 10° SSW 20:40:18 73° ESE 20:45:47 10° NNE night (unlit)
13 Feb - 22:19:55 10° W 22:23:34 19° NW 22:27:26 10° N night (unlit)
14 Feb - 03:38:57 10° NNE 03:41:04 12° NE 03:43:11 10° NE visible
14 Feb - 05:19:08 10° NNW 05:25:05 52° NE 05:30:59 10° SE visible
14 Feb - 07:02:25 10° NW 07:07:22 26° WSW 07:12:16 10° SSW daylight
14 Feb - 19:52:48 10° S 19:57:23 40° ESE 20:02:25 10° NE visible
14 Feb - 21:35:38 10° WSW 21:40:04 29° NW 21:44:54 10° N night (unlit)
15 Feb - 04:36:19 10° NNW 04:41:47 33° NE 04:47:12 10° ESE visible
15 Feb - 06:18:45 10° NW 06:24:32 45° WSW 06:30:11 10° S visible
15 Feb - 19:10:50 10° SSE 19:14:37 22° ESE 19:18:40 10° ENE visible
15 Feb - 20:51:52 10° SW 20:56:44 47° NW 21:02:06 10° NNE visible
16 Feb - 03:53:41 10° N 03:58:19 22° NE 04:02:57 10° E visible
16 Feb - 05:35:27 10° NNW 05:41:34 75° WSW 05:47:33 10° SSE visible
16 Feb - 07:22:20 10° W 07:23:08 10° W 07:23:56 10° WSW daylight
16 Feb - 18:30:17 10° ESE 18:31:58 12° E 18:33:42 10° E visible
16 Feb - 20:08:33 10° SSW 20:13:33 82° WNW 20:19:07 10° NNE visible
16 Feb - 21:54:10 10° WNW 21:57:09 15° NW 22:00:16 10° N visible
